Weather History for Ely, NV

Change the Weather History Date:

Sunday, January 15, 2012

  Actual Average Record
Temperature  
Mean Temperature 40 °F 25 °F  
Max Temperature 51 °F 40 °F 57 °F (1912)
Min Temperature 29 °F 11 °F -18 °F (1947)
Degree Days  
Heating Degree Days 25 40  
Month to date heating degree days 474 600  
Since 1 July heating degree days 3301 3700  
Cooling Degree Days 0 0  
Month to date cooling degree days 0 0  
Year to date cooling degree days 0 0  
Moisture  
Dew Point -7 °F    
Average Humidity 17    
Maximum Humidity 24    
Minimum Humidity 9    
Precipitation  
Precipitation 0.00 in 0.02 in 0.71 in (1995)
Month to date precipitation 0.01 0.35  
Year to date precipitation 0.01 0.35  
Snow  
Snow 0.00 in 0.30 in 8.00 in (1995)
Month to date snowfall 0.1 4.7  
Since 1 July snowfall 12.0 22.6  
Snow Depth 0.00 in    
Sea Level Pressure  
Sea Level Pressure 29.81 in    
Wind  
Wind Speed 16 mph (South)    
Max Wind Speed 31 mph    
Max Gust Speed 46 mph    
Visibility 10 miles    
Events      
T = Trace of Precipitation, MM = Missing Value Source: NWS Daily Summary

Daily Weather History Graph

Daily Weather History Graph

Search for Another Location

Airport:

Trip Planner

Search our weather history database for the weather conditions in past years. The results will help you decide how hot, cold, wet, or windy it might be!

Date:

Astronomy

Jan. 15, 2012 Rise Set
Actual Time 6:57 AM PST 4:40 PM PST
Civil Twilight 6:28 AM PST 5:09 PM PST
Nautical Twilight 5:55 AM PST 5:42 PM PST
Astronomical Twilight 5:23 AM PST 6:14 PM PST
Moon No Moon Rise 10:20 AM PST (1/15)
Length of Visible Light 10h 41m
Length of Day
9h 42m
Waning Gibbous, 56% of the Moon is Illuminated
Jan 15
Waning Gibbous
Jan 16
Last Quarter
Jan 22
New
Jan 30
First Quarter
Feb 7
Full

Hourly Weather History & Observations

Time (PST) Temp. Windchill Dew Point Humidity Pressure Visibility Wind Dir Wind Speed Gust Speed Precip Events Conditions
12:53 AM 32.0 °F 23.6 °F -9.0 °F 17% 29.96 in 10.0 mi SW 10.4 mph - N/A   Clear
1:53 AM 33.1 °F 24.9 °F -9.9 °F 15% 29.93 in 10.0 mi SSW 10.4 mph - N/A   Clear
2:53 AM 33.1 °F 26.9 °F -11.9 °F 14% 29.92 in 10.0 mi West 6.9 mph - N/A   Clear
3:53 AM 30.9 °F 22.8 °F -11.9 °F 15% 29.92 in 10.0 mi SSW 9.2 mph - N/A   Clear
4:53 AM 30.9 °F 21.2 °F -11.9 °F 15% 29.96 in 10.0 mi SSW 12.7 mph - N/A   Clear
5:53 AM 32.0 °F 23.6 °F -13.0 °F 14% 29.97 in 10.0 mi SW 10.4 mph - N/A   Clear
6:53 AM 28.9 °F 19.8 °F -9.9 °F 18% 29.96 in 10.0 mi SW 10.4 mph - N/A   Clear
7:53 AM 34.0 °F 24.6 °F -11.0 °F 14% 29.94 in 10.0 mi SW 13.8 mph - N/A   Clear
8:53 AM 41.0 °F 34.7 °F -9.0 °F 12% 29.90 in 10.0 mi SSW 10.4 mph - N/A   Clear
9:53 AM 42.1 °F 35.7 °F -9.9 °F 11% 29.88 in 10.0 mi South 11.5 mph 25.3 mph N/A   Clear
10:53 AM 37.9 °F 32.1 °F -7.1 °F 15% 29.88 in 10.0 mi South 8.1 mph - N/A   Clear
11:53 AM 44.1 °F 35.9 °F -9.0 °F 11% 29.81 in 10.0 mi SSE 19.6 mph 27.6 mph N/A   Clear
12:53 PM 50.0 °F - -7.1 °F 9% 29.73 in 10.0 mi SSE 26.5 mph 34.5 mph N/A   Clear
1:53 PM 46.9 °F - -8.0 °F 10% 29.72 in 10.0 mi SSE 21.9 mph 33.4 mph N/A   Overcast
2:53 PM 45.0 °F 36.4 °F -6.0 °F 12% 29.72 in 10.0 mi SSE 23.0 mph 35.7 mph N/A   Mostly Cloudy
3:53 PM 43.0 °F 33.5 °F -6.0 °F 13% 29.72 in 10.0 mi SSE 24.2 mph 34.5 mph N/A   Clear
4:53 PM 41.0 °F 32.5 °F -5.1 °F 14% 29.73 in 10.0 mi SSE 17.3 mph 29.9 mph N/A   Clear
5:53 PM 37.9 °F 28.9 °F -4.0 °F 17% 29.74 in 10.0 mi South 16.1 mph - N/A   Clear
6:53 PM 39.9 °F 29.5 °F -4.0 °F 16% 29.72 in 10.0 mi South 24.2 mph 33.4 mph N/A   Clear
7:53 PM 37.9 °F 26.1 °F -2.9 °F 18% 29.70 in 10.0 mi SSE 27.6 mph 34.5 mph N/A   Clear
8:53 PM 35.1 °F 24.8 °F -2.0 °F 21% 29.68 in 10.0 mi South 17.3 mph - N/A   Clear
9:53 PM 34.0 °F 23.4 °F -0.9 °F 23% 29.68 in 10.0 mi South 17.3 mph 29.9 mph N/A   Clear
10:53 PM 34.0 °F 22.7 °F -0.0 °F 24% 29.70 in 10.0 mi South 19.6 mph 24.2 mph N/A   Clear
11:53 PM 30.9 °F 18.4 °F 1.0 °F 28% 29.66 in 10.0 mi SSE 20.7 mph 25.3 mph N/A   Clear